Date,TemperatureHighF,TemperatureAvgF,TemperatureLowF,DewpointHighF,DewpointAvgF,DewpointLowF,HumidityHigh,HumidityAvg,HumidityLow,PressureMaxIn,PressureMinIn,WindSpeedMaxMPH,WindSpeedAvgMPH,GustSpeedMaxMPH,PrecipitationSumIn
2014-1-1,51,36,25,33,27,22,92,73,47,30.34,30.02,17,2,17,0.00
2014-1-2,36,26,13,34,23,8,95,88,79,30.40,29.85,23,4,23,0.18
2014-1-3,28,16,4,14,9,1,90,74,53,30.60,30.29,13,2,13,0.01
2014-1-4,45,31,17,25,18,10,78,60,44,30.30,30.05,27,6,27,0.00
2014-1-5,50,37,15,44,32,11,95,83,53,30.08,29.55,26,4,26,0.55
2014-1-6,15,0,-5,11,-6,-12,84,72,61,30.57,30.00,25,6,25,0.00
2014-1-7,18,5,-4,6,-3,-11,83,69,54,30.63,30.45,18,4,18,0.00
2014-1-8,35,23,8,25,15,4,92,72,57,30.52,30.45,14,2,14,0.00
2014-1-9,39,32,28,32,27,24,93,83,62,30.52,30.29,14,1,17,0.04
2014-1-10,52,44,33,49,41,32,95,92,87,30.29,29.74,18,3,18,0.29
2014-1-11,52,44,33,51,41,30,97,89,77,29.89,29.54,25,4,25,0.71
2014-1-12,55,40,28,39,33,26,95,77,51,30.11,29.89,20,3,20,0.05
2014-1-13,52,48,43,48,42,34,96,80,56,29.92,29.73,30,6,30,0.35
2014-1-14,53,39,27,41,34,25,96,84,57,30.02,29.80,27,3,27,0.02
2014-1-15,33,27,19,25,19,14,81,71,55,30.17,30.01,15,3,15,0.00
2014-1-16,19,17,17,14,14,13,87,86,81,30.13,30.08,4,0,4,0.00
2014-1-21,32,18,5,31,12,-1,94,78,54,30.28,29.82,22,3,22,0.03
2014-1-22,21,10,-2,17,4,-6,89,77,62,30.28,30.10,25,3,25,0.00
2014-1-23,18,9,2,13,0,-5,80,67,54,30.75,30.22,21,4,21,0.00
2014-1-24,24,10,-8,7,0,-12,88,65,45,30.75,30.00,25,6,25,0.00
2014-1-25,43,27,15,27,15,4,92,63,31,30.03,29.67,33,8,33,0.07
2014-1-26,56,34,15,38,22,4,80,61,46,30.03,29.63,25,4,25,0.00
2014-1-27,49,18,8,38,5,-4,76,56,44,30.50,29.69,30,6,30,0.00
2014-1-28,15,7,1,-1,-4,-8,82,63,44,30.56,30.42,11,1,11,0.00
2014-1-29,28,12,-2,8,2,-6,87,66,40,30.49,30.36,14,2,18,0.00
2014-1-30,39,25,10,12,7,2,68,49,31,30.36,30.00,22,4,22,0.00
2014-1-31,45,37,28,33,18,10,88,46,35,30.18,30.05,13,2,13,0.00
2014-2-1,60,49,36,48,37,29,91,63,44,30.06,29.86,28,5,28,0.01
2014-2-2,50,35,28,47,32,26,94,92,85,30.24,29.93,15,2,17,0.34
2014-2-3,38,27,18,28,22,15,93,82,57,30.38,30.14,12,2,12,0.28
2014-2-4,32,26,17,30,23,15,94,88,77,30.39,29.88,23,2,23,0.00
2014-2-7,1,1,0,-3,-3,-3,85,84,83,30.54,30.52,0,0,27,0.00
2014-2-8,28,25,17,26,22,14,93,89,82,30.37,30.20,0,0,0,0.02
2014-2-9,33,28,22,30,25,19,94,89,78,30.31,30.12,0,0,0,0.03
2014-2-10,26,18,8,19,12,5,90,76,57,30.46,30.29,11,1,11,0.06
2014-2-11,26,11,1,16,5,-3,86,76,57,30.55,30.45,10,1,10,0.06
2014-2-13,35,35,34,23,20,17,62,55,47,29.78,29.75,12,4,14,0.13
2014-2-14,39,32,22,34,27,19,99,84,62,29.90,29.64,18,3,18,0.16
2014-2-15,31,23,14,24,18,11,92,81,65,30.22,29.90,10,2,14,0.11
2014-2-16,39,30,24,30,25,18,88,79,66,30.30,30.02,16,2,16,0.04
2014-2-17,38,29,23,35,24,18,93,81,73,30.30,29.75,20,6,20,0.25
2014-2-23,43,32,26,35,28,17,92,83,69,30.28,30.11,13,2,13,0.01
2014-2-24,37,24,19,18,16,14,85,70,42,30.39,30.27,10,1,11,0.00
2014-2-26,29,21,13,11,7,4,72,55,38,30.29,30.01,14,4,27,0.00
2014-2-27,33,23,15,15,8,2,71,53,28,30.20,29.92,18,4,19,0.00
2014-2-28,43,27,12,21,12,4,73,55,34,30.27,30.09,13,3,15,0.00
2014-3-1,55,44,30,39,33,20,80,65,53,30.21,30.11,10,1,12,0.00
2014-3-2,45,30,19,36,27,16,92,87,70,30.26,30.10,14,1,15,0.35
2014-3-3,25,18,7,18,13,4,89,82,71,30.45,30.22,0,0,0,0.11
2014-3-4,40,22,7,23,13,4,89,72,42,30.42,30.23,11,1,12,0.10
2014-3-5,43,30,15,28,20,13,96,70,47,30.33,30.21,13,2,15,0.12
2014-3-6,49,35,24,32,25,19,86,68,50,30.31,30.11,14,2,17,0.01
2014-3-7,64,41,23,40,30,21,94,70,36,30.11,29.98,10,1,12,0.00
2014-3-8,62,44,28,44,35,26,94,74,49,30.23,30.02,18,4,19,0.00
2014-3-9,53,38,24,32,26,20,87,63,39,30.33,30.09,13,3,14,0.00
2014-3-10,70,51,34,44,37,28,91,64,34,30.09,29.78,22,5,24,0.00
2014-3-11,78,60,44,52,45,40,90,63,32,29.81,29.53,19,3,20,0.01
2014-3-12,63,45,32,58,39,23,91,77,57,30.07,29.29,30,7,30,0.08
2014-3-13,32,30,28,24,22,20,76,73,72,30.11,30.07,11,4,13,0.00
2014-3-14,57,55,54,39,38,37,53,52,51,29.95,29.92,21,10,24,0.00
2014-3-15,69,52,31,41,36,29,94,58,30,30.11,29.95,17,1,17,0.00
2014-3-16,44,36,28,32,27,18,89,71,60,30.04,29.91,25,5,28,0.04
2014-3-17,47,32,26,34,24,17,92,70,57,29.98,29.84,12,2,13,0.13
2014-3-18,51,40,26,44,36,24,92,85,75,29.99,29.81,15,2,20,0.00
2014-3-19,50,48,47,46,44,42,88,84,81,29.89,29.82,23,7,23,0.01
2014-3-29,43,41,40,41,39,39,94,94,94,29.99,29.94,16,6,17,0.84
2014-4-3,61,59,58,60,58,57,97,97,97,29.86,29.75,11,2,11,2.01
2014-4-4,60,53,44,58,48,33,97,84,66,30.07,29.56,26,5,26,1.85
2014-4-5,56,45,36,40,33,28,83,64,47,30.23,30.06,21,3,21,0.00
2014-4-6,61,47,30,42,36,28,94,69,43,30.18,29.91,20,2,20,0.00
2014-4-7,56,52,48,55,48,40,97,89,62,29.91,29.40,22,3,24,0.78
2014-4-10,77,71,66,50,48,47,51,45,38,29.97,29.88,25,7,30,0.00
2014-4-11,75,64,52,58,50,45,84,61,51,30.08,29.95,19,4,22,0.00
2014-4-12,81,65,46,60,54,44,94,69,46,30.12,29.88,26,5,28,0.00
2014-4-13,81,73,64,62,58,53,74,60,48,29.95,29.70,29,9,31,0.00
2014-4-14,73,60,41,61,55,38,96,85,50,29.85,29.65,27,7,40,0.77
2014-4-15,46,38,30,38,28,21,94,70,42,30.27,29.84,22,4,22,0.19
2014-4-16,54,40,25,32,27,23,92,63,36,30.41,30.22,19,4,20,0.00
2014-4-17,70,52,34,47,38,30,87,62,37,30.37,30.24,19,3,22,0.00
2014-4-18,76,57,39,52,44,36,93,66,35,30.31,30.17,10,1,12,0.00
2014-4-19,75,58,42,52,44,39,93,63,33,30.28,30.18,17,2,17,0.00
2014-4-20,81,61,41,52,44,37,94,59,31,30.25,30.09,14,1,14,0.00
2014-4-21,79,63,46,57,50,43,92,65,40,30.10,29.88,15,2,15,0.00
2014-4-22,74,63,50,62,52,39,94,71,32,29.96,29.81,15,2,21,0.01
2014-4-23,67,51,38,44,37,33,88,61,36,30.13,29.96,12,1,13,0.00
2014-4-24,77,60,46,51,43,37,79,55,33,30.05,29.71,20,3,20,0.00
2014-4-25,73,61,49,58,52,44,96,75,39,29.95,29.60,21,3,21,0.27
2014-4-26,80,62,42,53,47,40,96,62,28,29.98,29.88,17,2,19,0.00
2014-4-27,80,64,49,65,55,46,94,75,44,29.94,29.76,15,2,16,0.06
2014-4-28,67,63,61,64,62,60,97,94,84,29.82,29.57,20,4,21,2.14
2014-4-29,76,62,52,62,56,49,97,82,46,29.82,29.53,29,5,35,0.21
2014-4-30,68,56,50,56,51,45,97,83,55,29.95,29.75,22,3,24,0.01
2014-5-1,59,52,44,46,43,39,92,71,49,29.96,29.91,24,5,24,0.00
2014-5-2,51,49,47,42,41,40,77,74,68,29.96,29.93,4,1,5,0.00
2014-5-5,77,68,63,59,57,56,79,68,49,29.81,29.76,4,0,4,0.00
2014-5-6,87,68,50,68,58,48,95,71,46,29.89,29.80,15,1,15,0.00
2014-5-7,85,71,53,67,58,51,92,67,42,29.97,29.85,20,4,20,0.00
2014-5-8,86,75,64,69,61,56,82,64,46,30.06,29.95,22,4,22,0.00
2014-5-9,76,71,66,66,61,-100,91,73,58,29.97,29.85,23,4,27,0.11
2014-5-10,76,66,60,69,63,57,97,90,73,30.00,29.90,19,2,27,1.65
2014-5-11,80,67,58,72,64,57,98,91,74,30.08,29.97,20,1,20,0.18
2014-5-12,86,75,65,74,68,63,97,81,62,30.06,29.95,21,3,21,0.00
2014-5-13,88,75,65,71,66,63,95,77,46,30.07,29.96,19,4,26,0.12
2014-5-14,65,63,60,63,62,59,97,96,95,30.08,29.81,15,2,27,0.81
2014-5-15,63,52,45,62,48,44,100,85,60,30.08,29.82,15,3,17,0.05
2014-5-16,58,50,43,49,44,-100,100,82,50,30.11,29.98,20,2,22,0.15
2014-5-17,63,50,39,47,41,37,96,75,41,30.26,30.10,11,1,13,0.00
2014-5-18,70,53,36,50,42,34,96,71,41,30.30,30.22,13,1,16,0.00
2014-5-19,77,59,40,54,47,38,96,68,39,30.29,30.07,14,2,14,0.00
2014-5-20,84,70,55,67,59,49,91,69,48,30.09,29.95,27,4,27,0.00
2014-5-21,86,74,62,73,66,58,88,77,63,30.00,29.91,18,4,20,0.00
2014-5-22,87,73,61,74,65,59,97,78,40,30.05,29.95,13,2,15,0.70
2014-5-23,80,67,56,62,57,53,95,72,45,30.14,30.03,12,1,14,0.00
2014-5-24,83,66,49,63,55,48,97,71,43,30.20,30.08,13,1,13,0.00
2014-5-25,75,66,55,63,58,53,96,78,58,30.15,30.07,9,0,9,0.00
2014-5-26,89,73,56,73,65,55,97,78,53,30.12,29.99,17,1,17,0.00
2014-5-27,89,76,65,74,68,64,97,79,54,30.04,29.92,11,1,12,0.01
2014-5-28,86,73,65,73,66,63,95,80,57,30.00,29.94,14,1,14,0.00
2014-5-29,86,74,64,74,68,62,96,83,60,30.04,29.95,6,0,7,0.00
2014-5-30,84,75,67,75,70,66,97,85,65,30.08,30.01,14,1,16,0.00
2014-5-31,86,74,63,69,62,58,94,68,44,30.14,30.03,15,2,15,0.00
2014-6-1,89,72,58,76,66,56,97,84,60,30.10,30.00,17,1,18,0.34
2014-6-2,81,73,68,73,69,65,97,86,74,30.10,29.97,19,4,19,0.12
2014-6-3,85,76,70,76,71,68,95,87,69,30.03,29.91,14,3,15,0.00
2014-6-4,85,75,67,75,71,66,97,88,71,29.92,29.69,23,3,26,0.01
2014-6-5,77,68,62,70,62,58,94,82,62,29.92,29.75,15,2,17,0.00
2014-6-6,85,69,56,67,61,54,97,76,47,29.99,29.90,11,1,11,0.00
2014-6-7,86,71,55,67,61,53,97,73,47,30.02,29.77,16,1,16,0.00
2014-6-8,79,70,63,69,64,61,94,84,63,29.95,29.72,22,3,27,0.06
2014-6-9,77,68,62,65,62,60,97,84,61,29.96,29.85,14,1,14,0.00
2014-6-10,77,69,64,72,66,62,97,91,79,29.86,29.73,13,2,13,0.24
2014-6-11,76,70,65,71,67,63,96,89,76,29.79,29.71,15,3,17,0.11
2014-6-12,83,71,61,69,65,60,98,82,56,29.89,29.78,10,0,10,0.01
2014-6-13,82,69,56,64,60,52,96,76,42,30.02,29.83,13,1,15,0.05
2014-6-14,79,64,47,59,52,46,96,68,37,30.13,30.01,12,1,12,0.00
2014-6-15,90,72,52,71,61,50,96,72,43,30.08,29.96,16,2,18,0.00
2014-6-16,92,79,68,76,70,64,92,75,52,30.13,30.01,16,2,16,0.00
2014-6-17,92,80,67,77,72,65,93,76,57,30.10,29.97,19,3,19,0.00
2014-6-18,92,81,68,77,72,67,97,76,56,30.08,29.98,17,3,18,0.00
2014-6-19,94,81,70,78,72,68,96,77,52,30.09,29.98,12,1,14,0.00
2014-6-20,91,77,69,77,72,68,96,86,58,30.02,29.90,16,1,21,0.11
2014-6-21,93,79,67,76,70,66,98,78,48,29.95,29.85,9,0,9,0.00
2014-6-22,91,79,65,76,70,64,97,77,53,29.92,29.81,14,1,16,0.00
2014-6-23,93,77,67,77,71,66,97,81,53,29.92,29.84,19,2,21,0.01
2014-6-24,85,75,69,75,71,67,96,88,68,29.92,29.83,18,2,21,0.34
2014-6-25,89,78,70,74,70,67,98,78,51,29.99,29.88,13,1,15,0.00
2014-6-26,93,78,65,73,68,64,97,75,42,30.03,29.93,7,0,7,0.00
2014-6-27,91,77,64,75,69,63,97,78,54,30.04,29.97,13,1,15,0.00
2014-6-28,87,77,71,77,72,69,93,85,66,30.12,30.01,12,1,15,0.02
2014-6-29,87,77,71,75,71,68,91,82,65,30.10,29.98,14,3,17,0.00
2014-6-30,94,79,67,80,73,66,97,82,60,30.01,29.80,18,2,19,0.00
2014-7-1,92,80,68,79,74,65,95,81,61,29.89,29.73,26,3,31,0.60
2014-7-4,83,74,60,63,59,54,90,60,43,30.28,30.22,15,1,16,0.00
2014-7-5,85,69,52,65,58,51,97,73,45,30.29,30.10,10,1,12,0.00
2014-7-6,86,73,58,69,63,57,96,73,49,30.11,29.93,17,3,20,0.00
2014-7-7,89,76,67,76,69,62,95,77,62,29.95,29.78,20,4,24,0.07
2014-7-8,86,77,68,73,70,66,97,80,61,29.89,29.78,19,4,21,0.30
2014-7-9,88,75,64,71,66,63,97,75,46,29.99,29.88,12,1,13,0.00
2014-7-10,88,75,62,69,64,60,97,72,43,30.12,29.99,10,0,11,0.00
2014-7-11,92,74,58,69,63,57,97,73,41,30.18,30.10,10,0,10,0.00
2014-7-12,89,76,61,74,68,60,96,77,58,30.16,30.02,11,1,12,0.00
2014-7-13,94,82,72,79,73,69,95,77,56,30.03,29.87,19,3,21,0.42
2014-7-14,87,75,68,76,71,66,98,89,66,29.93,29.81,14,2,24,0.80
2014-7-15,78,68,59,67,60,54,97,78,49,29.97,29.84,16,2,17,0.00
2014-7-16,78,64,52,63,57,51,97,79,53,30.03,29.96,11,0,12,0.00
2014-7-17,84,66,52,64,57,51,97,75,43,30.11,30.03,11,0,11,0.00
2014-7-18,73,64,56,63,59,54,95,86,67,30.13,30.08,11,1,11,0.00
2014-7-19,78,68,61,69,64,60,97,87,71,30.08,29.99,11,1,12,0.00
2014-7-21,92,80,62,75,70,61,97,74,50,30.10,30.02,7,0,8,0.00
2014-7-22,97,79,64,77,71,63,97,77,49,30.09,29.98,10,0,11,0.00
2014-7-23,86,77,69,76,72,67,97,85,62,30.06,29.91,13,1,19,0.00
2014-7-24,83,72,60,67,62,56,94,73,49,30.04,29.94,16,1,18,0.00
2014-7-25,86,69,52,66,60,51,97,74,47,30.09,29.91,12,0,12,0.00
2014-7-26,94,76,59,78,68,58,96,80,58,30.00,29.81,21,3,36,0.18
2014-7-27,70,70,70,69,69,69,98,98,97,29.84,29.83,7,2,27,0.98
2014-7-28,75,68,62,63,60,53,86,75,65,30.03,29.97,12,2,14,0.00
2014-7-29,81,64,50,65,56,48,95,76,52,30.09,30.01,13,1,13,0.00
2014-7-30,84,69,55,66,61,54,100,77,48,30.09,30.02,15,1,15,0.00
2014-7-31,89,71,56,68,62,55,98,76,41,30.09,30.03,9,0,10,0.00
2014-8-1,89,72,57,70,63,56,97,76,42,30.09,30.00,7,0,7,0.00
2014-8-2,87,73,62,70,65,61,97,78,50,30.12,30.02,13,1,13,0.00
2014-8-3,86,67,58,70,62,57,97,88,53,30.14,30.08,6,0,7,0.00
2014-8-6,77,72,70,70,69,68,93,89,79,30.01,29.96,1,0,1,0.00
2014-8-7,80,73,67,71,68,64,96,85,66,30.05,29.95,10,1,12,0.00
2014-8-8,76,71,68,73,68,64,96,90,75,30.00,29.92,14,3,14,0.12
2014-8-9,81,74,71,76,72,69,97,94,84,29.98,29.90,10,1,10,0.19
2014-8-10,89,77,71,77,73,69,98,88,64,29.97,29.88,13,1,13,0.03
2014-8-11,86,74,67,77,71,66,98,90,69,29.92,29.78,11,1,27,0.19
2014-8-12,74,68,61,61,59,58,89,76,64,29.97,29.88,12,1,13,0.00
2014-8-13,82,66,55,65,59,54,97,81,49,30.07,29.97,13,0,14,0.00
2014-8-14,75,70,67,67,65,64,92,85,76,30.00,29.98,11,0,11,0.00
2014-8-15,83,69,56,67,62,55,96,79,53,30.07,29.98,13,0,13,0.00
2014-8-16,82,70,60,71,65,58,95,85,67,30.01,29.95,12,1,12,0.07
2014-8-17,72,70,66,72,69,64,98,97,95,29.97,29.81,13,1,16,0.57
2014-8-18,81,74,69,75,72,68,98,93,79,29.86,29.79,9,0,10,0.03
2014-8-19,91,76,67,76,71,66,98,86,58,29.87,29.78,13,1,13,0.00
2014-8-20,90,78,68,78,72,66,97,83,61,30.03,29.82,19,1,19,0.00
2014-8-21,92,78,70,81,73,68,96,85,62,30.05,29.95,14,2,14,0.00
2014-8-22,93,79,71,81,74,70,97,87,67,30.02,29.91,13,2,13,0.73
2014-8-23,95,78,71,83,74,70,98,89,66,29.98,29.85,16,1,27,1.57
2014-8-24,93,79,72,81,75,71,98,87,64,30.00,29.91,10,1,10,0.01
2014-8-25,94,81,70,80,75,69,98,84,60,30.04,29.97,12,0,12,0.00
2014-8-26,93,80,70,81,74,69,98,83,62,30.11,29.99,14,0,14,0.00
2014-8-27,96,79,68,80,73,67,98,84,54,30.08,29.98,25,0,28,0.14
2014-8-28,90,79,69,80,73,68,98,83,60,30.03,29.94,9,1,9,0.00
2014-8-29,94,80,70,78,72,66,96,77,50,30.01,29.92,14,1,15,0.00
2014-8-30,87,74,67,75,69,65,97,87,63,30.03,29.98,9,0,9,0.23
2014-8-31,82,74,70,75,72,70,98,93,77,30.03,29.95,12,1,13,0.01
2014-9-1,87,78,72,77,74,71,98,87,70,29.99,29.89,24,4,26,0.00
2014-9-2,87,76,68,78,72,67,98,87,67,30.00,29.88,17,2,18,0.43
2014-9-3,90,76,65,74,70,64,98,82,55,30.05,29.97,11,0,12,0.00
2014-9-4,94,78,66,78,72,65,98,83,53,30.09,30.00,6,0,9,0.00
2014-9-5,94,80,69,79,73,68,98,83,59,30.12,29.94,12,1,12,0.00
2014-9-6,84,74,64,75,70,62,98,89,68,30.11,29.98,14,1,18,0.12
2014-9-7,81,68,57,64,60,56,97,77,51,30.16,30.06,14,2,17,0.00
2014-9-8,86,66,52,66,58,50,97,79,47,30.10,30.00,13,1,14,0.00
2014-9-9,86,69,53,70,62,52,97,81,48,30.09,29.94,8,0,9,0.00
2014-9-10,83,74,65,76,70,63,96,88,76,29.95,29.76,19,3,23,0.00
2014-9-11,78,67,59,74,65,56,98,94,87,30.14,29.81,11,1,13,1.91
2014-9-12,67,61,58,60,57,55,92,87,78,30.18,30.10,12,1,12,0.01
2014-9-13,70,59,48,58,52,46,94,79,51,30.30,30.13,15,2,15,0.00